Zurück zum Katalog

FENGYUN 1C DEB

AktivSSO
NORAD 36710·DEBRIS·🇨🇳 China

Gestartet May 10, 1999 von Taiyuan Satellite Launch Center

Loading…

Nächste Überflüge (nächste 24 Stunden)

TLE

AktuellSource: Space-Track

Epoche: Sep 13, 2026, 21:35 UTC

1 36710U 99025EAG 26256.89936691  .00002992  00000-0  72727-3 0  9994
2 36710  98.3544 317.6335 0065201  61.3227 299.4503 14.52285501689441

Verfolge FENGYUN 1C DEB in Echtzeit mit AllMySat

Download on the App Store